Regional Weather Roundup
Issued by NWS

Home | Current Version | Previous Version | Graphics & Text | Print | Product List | Glossary On
Versions: 1 2 3 4 5 6 7 8 9 10 11 12 13 14 15 16 17 18 19 20 21 22 23 24 25 26 27 28 29 30 31 32 33 34 35 36 37 38 39 40 41 42 43 44 45 46 47 48 49 50
157
ASUS43 KMPX 270410
RWRMN
WEATHER ROUNDUP FOR MINNESOTA
NATIONAL WEATHER SERVICE TWIN CITIES/CHANHASSEN MN
1100 PM CDT FRI AUG 26 2016


NOTE: "FAIR" INDICATES FEW OR NO CLOUDS BELOW 12,000 FEET WITH NO
SIGNIFICANT WEATHER AND/OR OBSTRUCTIONS TO VISIBILITY. N/A MEANS
CURRENT SKY AND/OR WEATHER CONDITIONS ARE NOT AVAILABLE.

MNZ060>063-068>070-270500-
   Twin Cities Metro

CITY           SKY/WX    TMP DP  RH WIND       PRES   REMARKS
TWIN CITIES    CLOUDY    65  56  72 SE7       30.12F
ST PAUL        CLOUDY    62  57  83 SE5       30.13S
CRYSTAL        CLOUDY    64  55  72 SE5       30.10F
BLAINE         CLOUDY    64  57  77 SE5       30.12S
LAKEVILLE      CLOUDY    61  61 100 CALM      30.13F
EDEN PRAIRIE   CLOUDY    65  57  75 SE9       30.11F
LAKEVILLE      CLOUDY    61  61 100 CALM      30.13F
SOUTH ST PAUL  CLOUDY    65  55  70 CALM      30.12F
LAKE ELMO      FAIR      61  57  88 CALM      30.14S
$$
MNZ001>005-007-008-013>017-022>024-027-028-270500-
   Northwest Minnesota

CITY           SKY/WX    TMP DP  RH WIND       PRES   REMARKS
BEMIDJI        CLOUDY    64  54  70 SW5       30.07S
HALLOCK        CLEAR     57  54  88 S7        29.99S
ROSEAU         PTCLDY    61  54  77 SW8       30.02S
WARROAD        CLOUDY    64  54  68 SW5       30.03R
THIEF RVR FALL CLOUDY    59  55  87 S6        30.05R
CROOKSTON      PTCLDY    61  54  77 S8        30.04S
FOSSTON        CLOUDY    59  54  82 S5        30.07S
DETROIT LAKES  CLOUDY    63  55  77 S3        30.08F
MOORHEAD       CLOUDY    63  57  82 SE3       30.05F
PARK RAPIDS    CLOUDY    62  54  74 S6        30.09R
MAHNOMEN       CLOUDY    60  56  85 S3        30.06S
$$
MNZ006-009>011-018-025>026-270500-
   North Central Minnesota

CITY           SKY/WX    TMP DP  RH WIND       PRES   REMARKS
BAUDETTE       CLOUDY    61  53  75 S7        30.04R
FLAG ISLAND    CLOUDY    66  57  72 CALM      30.00R HAZE
INTL FALLS     CLOUDY    58  52  80 CALM      30.05S
WASKISH        PTCLDY    63  55  77 S3        30.06R
BIG FORK       PTCLDY    54  52  94 CALM      30.09R
LONGVILLE      CLOUDY    63  54  72 S5        30.10R
GRAND RAPIDS   CLOUDY    60  54  80 S6        30.12R
ORR            PTCLDY    55  48  76 CALM      30.07R
COOK           CLOUDY    55  52  88 CALM      30.10R
WALKER         CLOUDY    61  54  76 SW5       30.09R
$$
MNZ012-019>021-037-270500-
   Northeast Minnesota

CITY           SKY/WX    TMP DP  RH WIND       PRES   REMARKS
DULUTH         MOCLDY    62  55  77 SW8       30.12R
ELY            CLOUDY    57  48  72 S3        30.12R
HIBBING        CLOUDY    51  50  96 CALM      30.11R
EVELETH        PTCLDY    53  51  95 CALM      30.12R
DULUTH HARBOR  MOCLDY    63  57  82 SW5       30.12R
TWO HARBORS    MOCLDY    57  52  82 CALM      30.11R
SILVER BAY     MOCLDY    54  52  94 CALM      30.12R
GRAND MARAIS     N/A     55  52  89 NW6       30.13S
G MARAIS ARPRT PTCLDY    52  48  87 CALM      30.17R
$$
MNZ029>031-032-039>041-046>048-054>057-064-270500-
   West Central Minnesota

CITY           SKY/WX    TMP DP  RH WIND       PRES   REMARKS
FERGUS FALLS   CLOUDY    63  55  77 S7        30.08F
WHEATON        CLOUDY    64  57  77 SE7       30.08S
MORRIS         CLOUDY    63  57  82 CALM      30.08S
ALEXANDRIA     CLOUDY    62  55  77 S5        30.11S
ELBOW LAKE     MOCLDY    61  57  85 SE8       30.08F
WADENA         CLOUDY    59  54  82 CALM      30.09S
GLENWOOD       MOCLDY    59  57  94 SE5       30.11R
APPLETON       CLOUDY    64  55  72 SE5       30.08S
BENSON         CLOUDY    63  55  77 S5        30.10R
ORTONVILLE     CLOUDY    63  57  82 CALM      30.08S
MADISON        CLOUDY    63  57  82 SE7       30.08S
WILLMAR        FAIR      63  57  82 S3        30.13R
$$
MNZ033>034-036-042>043-049>051-058-059-270500-
   Central Minnesota

CITY           SKY/WX    TMP DP  RH WIND       PRES   REMARKS
ST CLOUD       PTCLDY    60  58  92 SE3       30.10F
SAUK CENTRE    FAIR      60  56  87 S5        30.11S
PAYNESVILLE    CLOUDY    63  56  78 S6        30.11S
AITKIN           N/A     61  54  77 CALM      30.10R
PINE RIVER     CLOUDY    57  54  88 CALM      30.13R
BRAINERD       PTCLDY    60  55  83 CALM      30.11R
STAPLES        CLOUDY    57  54  88 CALM      30.11R
LONG PRAIRIE   FAIR      59  55  88 SE3       30.11R
LITTLE FALLS   CLOUDY    59  54  82 CALM      30.11R
LITCHFIELD     CLOUDY    63  57  82 CALM      30.11S
BUFFALO        CLOUDY    60  56  85 CALM      30.12F
MAPLE LAKE     PTCLDY    61  58  91 CALM      30.11F
HUTCHINSON     CLEAR     61  58  92 E5        30.11F
$$
MNZ037-044-045-052-053-270500-
   East Central Minnesota

CITY           SKY/WX    TMP DP  RH WIND       PRES   REMARKS
PRINCETON      PTCLDY    61  55  82 CALM      30.11F
MORA           PTCLDY    59  54  82 CALM      30.13F
CAMBRIDGE      PTCLDY    63  54  72 CALM      30.10F
RUSH CITY      CLOUDY    59  56  88 SE3       30.12F
MOOSE LAKE     CLOUDY    55  54  94 CALM      30.11S
HINCKLEY       FAIR      55  55 100 CALM      30.12F
CLOQUET        CLOUDY    59  54  82 CALM      30.13R
MCGREGOR       PTCLDY    59  54  82 S3        30.12R
$$
MNZ071>073-080-081-089-090-097-098-270500-
   Southwest Minnesota

CITY           SKY/WX    TMP DP  RH WIND       PRES   REMARKS
MONTEVIDEO     PTCLDY    63  57  82 S6        30.11S
GRANITE FALLS  MOCLDY    64  60  85 CALM      30.11S
CANBY          CLOUDY    63  59  87 SE5       30.10F
MARSHALL       CLOUDY    63  59  87 SE5       30.10R
REDWOOD FALLS  CLOUDY    63  57  81 SE7       30.09S
OLIVIA         CLOUDY    61  55  82 SE3       30.10R
PIPESTONE      CLOUDY    63  57  82 SE7       30.10R
WINDOM         CLOUDY    63  57  82 SE6       30.10F
WORTHINGTON    CLOUDY    61  59  93 SE7       30.11F
JACKSON          N/A     63  57  82 E7        30.12S
TRACY          CLOUDY    63  59  86 SE6       30.10S
SLAYTON        CLOUDY    61  59  94 SE7       30.11S
$$
MNZ065>067-074>077-082>085-091>093-270500-
   South Central Minnesota

CITY           SKY/WX    TMP DP  RH WIND       PRES   REMARKS
MANKATO        CLOUDY    64  57  77 E6        30.12S
NEW ULM          N/A     64  57  77 SE7       30.09F
ST JAMES       CLOUDY    57  54  88 E5        30.12F
FAIRMONT       CLOUDY    62  59  90 SE5       30.11F
GLENCOE        PTCLDY    62  60  93 CALM      30.11S
FARIBAULT      CLOUDY    64  57  77 E3        30.13F
OWATONNA       CLOUDY    63  59  88 E3        30.13F
WASECA         CLOUDY    63  57  82 E3        30.13F
ALBERT LEA     CLOUDY    63  61  94 CALM      30.13S
$$
MNZ078>079-086>088-094>096-270500-
   Southeast Minnesota

CITY           SKY/WX    TMP DP  RH WIND       PRES   REMARKS
ROCHESTER      CLOUDY    63  59  87 SE6       30.14F
RED WING       CLOUDY    61  57  88 CALM      30.13R
STANTON        CLOUDY    64  55  72 CALM      30.13S
DODGE CENTER   CLOUDY    61  57  88 CALM      30.14S
WINONA         DRIZZLE   64  61  88 CALM      30.14F
AUSTIN         CLOUDY    63  57  82 E3        30.12F
PRESTON        LGT RAIN  62  58  86 CALM      30.15S
$$
ABBREVIATIONS USED IN REMARKS
   TC - TEMPERATURES IN CELSIUS
  WCI - WIND CHILL INDEX
   HX - HEAT INDEX
  VSB - VISIBILITY
$$




USA.gov is the U.S. government's official web portal to all federal, state and local government web resources and services.